Tracking 32964 objects as of 21-Jan-2026
HD Live streaming from Space Station
objects crossing your sky now

STARLINK-33792

Track STARLINK-33792 now!
10-day predictions
STARLINK-33792 is classified as:


NORAD ID: 63506
Int'l Code: 2025-071P
Perigee: 481.5 km
Apogee: 483.0 km
Inclination: 53.2 °
Period: 94.1 minutes
Semi major axis: 6853 km
RCS: Unknown
Launch date: April 7, 2025
Source: United States (US)
Launch site: AIR FORCE WESTERN TEST RANGE (AFWTR)
Your satellite tracking list
Your tracking list is empty




NASA's NSSDC Master Catalog

Two Line Element Set (TLE):
1 63506U 25071P   26020.29735732  .00043189  00000-0  14605-2 0  9996
2 63506  53.1601   4.5007 0001142  51.6122 308.4981 15.30230437 45313
Source of the keplerian elements: AFSPC